Location: Newark
(2.5000°N, 112.5000°E)
Time: 01:49:25
(UTC+00:00)

N. Korean satellite - Visible Passes

Search period start: 13 November 2019 00:00
Search period end: 23 November 2019 00:00
Orbit: 456 x 506 km, 97.2° (Epoch: 12 November)

Date Brightness Start Highest point End Pass type
(mag) Time Alt. Az. Time Alt. Az. Time Alt. Az.
13 Nov 9.4 21:29:52 10° NE 21:32:51 24° E 21:35:48 10° SSE visible
14 Nov 10.3 10:53:18 10° WSW 10:54:30 11° W 10:55:42 10° W visible
16 Nov 7.9 21:46:33 10° NNE 21:50:03 46° E 21:53:30 10° S visible
17 Nov 9.8 21:22:14 10° ENE 21:24:43 18° E 21:27:10 10° SE visible
18 Nov 9.9 10:44:10 10° SW 10:46:21 16° W 10:48:32 10° WNW visible
20 Nov 8.6 21:38:37 10° NE 21:41:52 33° E 21:45:06 10° SSE visible
21 Nov 10.0 21:14:48 10° ENE 21:16:31 13° E 21:18:14 10° SE visible
22 Nov 9.7 10:35:24 10° SSW 10:38:09 21° W 10:40:55 10° NW visible
